Franklin Grove, IL (61031)

1:29 PM CDT on June 27, 2017 (GMT -0500)
Lost Lake Ogle County, Illinois | | Change Station

Elev 761 ft 41.91 °N, 89.35 °W | Updated 1 second ago

Clear
Clear
78.3 °F
Feels Like 79 °F
N
0.0
Wind Variable Wind from SSW
Gusts 1.0 mph

Today
High -- | Low -- °F
--% Chance of Precip.
Yesterday
High -- | Low -- °F
Precip. -- in
Pressure 30.12 in
Visibility 10.0 miles
Clouds Scattered Clouds 6000 ft
Heat Index 79 °F
Dew Point 48 °F
Humidity 35%
Rainfall 0.00 in
Snow Depth Not available.
5:24 AM 8:36 PM
Waxing Crescent, 18% visible
METAR KRPJ 271815Z AUTO 00000KT 10SM SCT060 22/08 A3012 RMK AO2 T02170079
Pressure 30.12 in
Visibility 10.0 miles
Clouds Scattered Clouds 6000 ft
Heat Index 79 °F
Dew Point 48 °F
Humidity 35%
Rainfall 0.00 in
Snow Depth Not available.
5:24 AM 8:36 PM
Waxing Crescent, 18% visible
METAR KRPJ 271815Z AUTO 00000KT 10SM SCT060 22/08 A3012 RMK AO2 T02170079

Get Severe Weather Alerts

Thanks for signing up!

Be on the lookout for a verification email in your inbox.

You'll start receiving the daily forecast at 6 AM.

×

10-Day Weather Forecast

Almanac

Astronomy

Jun. 27, 2017 Rise Set
Actual Time
Civil Twilight
Nautical Twilight
Astronomical Twilight
Moon
Length of Visible Light
Length of Day
Tomorrow will be .
, % of the Moon is Illuminated

Today's Extremes

State Highs State Lows

Community

WunderPhotos

Category 6

Welcome to Category 6. This is the collective home for Weather Underground's featured writeups by Dr. Jeff Masters (right), Bob Henson (left), Chris Burt, and other regular contributors.

Nearby

Air Quality

  Air Quality AQ Index Pollutant
Not available.

Snow Depth

Station Depth Elevation

Earthquake Activity

City Distance Mag. Time & Date
Minimum magnitude displayed is 2.5.

Coastal Water Temperatures

Place Temperature

Stations

Nearby Weather Stations

Station Location Temp. Windchill Dew Point Humidity Wind Precip. Elev Updated Type
                   

Watches & Warnings

There are currently no watches in effect.